User: anonymous   Login
Location: Sandbanks Provincial Park
(47.6073°N, 57.6428°W)
Time: 23:29:41
(UTC-03:-30)
Language:

Cosmos 2034 Rocket - Orbit

View from above orbital plane
View from above orbital plane
View from above satellite
View from above satellite

Ground track
Ground track

The orbit data is extracted from the following two-line orbital elements,

1 20150U 89059B   17022.91904420 -.00000086 +00000-0 -10433-3 0  9990
2 20150 082.9384 201.8502 0028429 330.0680 201.2064 13.75626722380206
Epoch (UTC): 22 January 2017 22:03:25
Eccentricity: 0.0028429
inclination: 82.9384°
perigee height: 958 km
apogee height: 1000 km
right ascension of ascending node: 201.8502°
argument of perigee: 330.0680°
revolutions per day: 13.75626722
mean anomaly at epoch: 201.2064°
orbit number at epoch: 38020

The dashed part of the orbit path shows where the satellite is in the earth's shadow,  

DLR